#timestamp,LO_Frequency,Hit,StdDev 
1639872015.1,286046996.4,N
1639872016.0,286046996.4,N
1639872035.8,286046994.8,N
1639872055.7,286046986.9,N
1639872075.5,286046991.8,N
1639872095.4,286046992.0,N
1639872115.2,286046995.6,N
1639872135.0,286046995.1,N
1639872135.9,286046995.1,N
1639872155.8,286046998.4,N
1639872175.6,286046998.1,N
1639872195.4,286046997.5,N
1639872215.3,286046996.5,N
1639872235.1,286046994.9,N
1639872255.9,286046996.0,N
1639872275.7,286046988.9,N
1639872295.5,286046995.6,N
1639872315.4,286047005.2,N
1639872335.2,286046987.9,N
1639872355.0,286046994.2,N
1639872355.9,286046994.2,N
1639872375.8,286046997.3,N
1639872395.6,286046995.9,N
1639872415.5,286046997.2,N
1639872435.3,286047000.2,N
1639872455.1,286046995.3,N
1639872475.9,286046993.5,N
1639872495.7,286046997.8,N
1639872515.5,286046995.2,N
1639872535.4,286046997.8,N
1639872555.2,286047000.7,N
1639872575.1,286046995.9,N
1639872576.0,286046995.9,N
1639872595.8,286046996.8,N
1639872615.6,286046997.6,N
1639872635.5,286046994.6,N
1639872655.3,286047001.1,N
1639872675.1,286046999.6,N
1639872695.9,286046995.0,N
1639872715.7,286046994.0,N
1639872735.6,286046989.0,Y
1639872755.4,286046994.2,P
1639872775.2,286046999.0,N
1639872795.1,286047002.2,N
1639872796.0,286047002.2,N
1639872815.8,286047000.2,N
1639872835.7,286047003.0,N
1639872855.5,286046998.2,N
1639872875.3,286047000.4,N
1639872895.2,286046998.3,N
1639872915.9,286047001.0,N
1639872935.7,286046999.1,N
1639872955.6,286046999.5,N
1639872975.4,286046998.3,N
1639872995.2,286046998.6,N
1639873015.1,286047005.5,N
1639873016.0,286047005.5,N
1639873035.8,286047007.4,N
1639873055.7,286047005.9,N
1639873075.5,286047003.1,N
1639873095.3,286047005.5,N
1639873115.2,286047005.9,N
1639873135.0,286047001.8,N
1639873135.9,286047001.8,N
1639873155.8,286047003.7,N
1639873175.6,286047000.0,N
1639873195.4,286047000.1,N
1639873215.3,286047002.9,N
1639873235.1,286047001.6,N
1639873255.8,286047005.9,N
1639873275.7,286047010.8,Y
1639873295.5,286047009.6,P
1639873315.4,286047011.7,N
1639873335.2,286047009.9,N
1639873355.0,286047010.7,N
1639873355.9,286047010.7,N
1639873375.8,286047003.4,N
1639873395.6,286047006.2,N
1639873415.4,286047004.5,N
1639873435.3,286047005.1,N
1639873455.1,286047006.2,N
1639873475.9,286047010.4,Y
1639873495.7,286047004.4,P
1639873515.5,286047000.1,N
1639873535.4,286047003.2,N
1639873555.2,286047003.9,N
1639873575.0,286047001.3,N
1639873575.9,286047001.3,N
1639873595.8,286047000.4,N
1639873615.6,286047000.4,N
1639873635.5,286047000.2,N
1639873655.3,286046994.4,N
1639873675.1,286046992.9,N
1639873695.9,286046992.6,N
1639873715.7,286046991.9,N
1639873735.5,286046997.3,N
1639873755.4,286046999.5,N
1639873775.2,286046998.1,N
1639873795.1,286046995.4,N
1639873796.0,286046995.4,N
1639873815.8,286046996.9,N
1639873835.6,286046994.1,N
1639873855.5,286046992.3,N
1639873875.3,286046995.8,N
1639873895.1,286047002.2,N
1639873915.9,286046998.2,N
1639873935.7,286047002.2,N
1639873955.6,286046999.0,N
1639873975.4,286046994.9,N
1639873995.2,286046994.8,N
1639874015.1,286046995.5,N
1639874016.0,286046995.5,N
1639874065.8,286046997.4,E
1639874075.8,286046998.5,N
1639874095.6,286046998.8,P
1639874115.4,286046992.0,P
1639874135.3,286046991.3,N
1639874155.1,286046995.0,N
1639874175.9,286047002.8,N
1639874195.7,286047001.6,N
1639874215.5,286047001.7,N
1639874235.4,286047005.9,N
1639874255.2,286046999.7,N
1639874275.0,286046997.3,N
1639874275.9,286046997.3,N
1639874295.8,286046999.1,N
1639874315.6,286046998.0,N
1639874335.5,286047002.6,N
1639874355.3,286046999.2,N
1639874375.1,286046996.9,N
1639874395.9,286046999.0,N
1639874415.7,286046997.1,N
1639874435.6,286047000.4,N
1639874455.4,286047001.1,N
1639874475.2,286046997.6,N
1639874495.1,286047001.3,N
1639874496.0,286047001.3,N
1639874515.8,286047003.9,N
1639874535.6,286046999.6,N
1639874555.5,286047002.4,N
1639874575.3,286047003.1,N
1639874595.2,286047005.8,N
1639874615.9,286047003.2,N
1639874635.7,286047000.1,N
1639874655.6,286047001.4,N
1639874675.4,286047002.8,N
1639874695.2,286046999.3,N
1639874715.1,286047002.1,N
1639874716.0,286047002.1,N
1639874735.8,286047005.4,N
1639874755.7,286047008.0,Y
1639874775.5,286047006.4,P
1639874795.3,286047005.5,N
1639874815.2,286047003.8,N
1639874835.0,286047000.6,N
1639874835.9,286047000.6,N
1639874855.7,286046997.8,N
1639874875.6,286046998.1,N
1639874895.4,286047005.7,N
1639874915.3,286047005.5,N
1639874935.1,286047002.9,N
1639874936.0,286047002.9,N
1639874955.8,286047003.1,N
1639874975.7,286047003.2,N
1639874995.5,286047011.9,Y
1639875015.4,286047002.4,P
1639875035.2,286047004.1,P
1639875055.0,286047001.4,N
1639875055.9,286047001.4,N
1639875075.8,286047001.1,N
1639875095.6,286047001.1,N
1639875115.4,286047003.9,Y
1639875135.3,286046998.5,P
1639875155.1,286046995.0,N
1639875175.9,286046994.5,N
1639875195.7,286046993.9,N
1639875215.5,286046996.2,N
1639875235.4,286046997.2,N
1639875255.2,286046994.2,N
1639875275.1,286046990.2,Y
1639875276.0,286046990.2,P
1639875295.8,286046995.9,N
1639875315.6,286046996.7,N
1639875335.5,286046995.3,N
1639875355.3,286046995.5,N
1639875375.2,286046998.3,N
1639875395.9,286047005.9,N
1639875415.7,286047003.1,N
1639875435.6,286047002.2,N
1639875455.4,286047001.1,N
1639875475.3,286046995.2,N
1639875495.1,286046999.5,N
1639875496.0,286046999.5,N
1639875515.8,286047003.0,N
1639875535.7,286047005.4,N
1639875555.5,286047000.5,N
1639875575.4,286046998.4,N
1639875595.2,286046997.2,N
